Columbus, OH

1:15 AM EST on February 27, 2017 (GMT -0500)
Ohio State University

Weather History for KOSU - December, 2013

Change the Weather History Date:

Tuesday, December 24, 2013

  Actual Average Record
Temperature  
Mean Temperature 18 °F -  
Max Temperature 26 °F 34 °F 57 °F (2014)
Min Temperature 10 °F 21 °F 0 °F (2004)
Degree Days  
Heating Degree Days 47    
Moisture  
Dew Point 11 °F    
Average Humidity 77    
Maximum Humidity 88    
Minimum Humidity 68    
Precipitation  
Precipitation 0.00 in - - ()
Sea Level Pressure  
Sea Level Pressure 30.45 in    
Wind  
Wind Speed 10 mph (WNW)    
Max Wind Speed 17 mph    
Max Gust Speed 26 mph    
Visibility 8 miles    
Events Snow    
Averages and records for this station are not official NWS values.
T = Trace of Precipitation, MM = Missing Value Source: NWS Daily Summary

Daily Weather History Graph

Daily Weather History Graph

Search for Another Location

Airport or City:

Trip Planner

Search our weather history database for the weather conditions in past years. The results will help you decide how hot, cold, wet, or windy it might be!

Date:

Astronomy

Dec. 24, 2013 Rise Set
Actual Time 7:52 AM EST 5:11 PM EST
Civil Twilight 7:21 AM EST 5:42 PM EST
Nautical Twilight 6:47 AM EST 6:16 PM EST
Astronomical Twilight 6:14 AM EST 6:49 PM EST
Moon No Moon Rise 11:45 AM EST (12/24)
Length of Visible Light 10h 20m
Length of Day
9h 19m
Waning Gibbous, 59% of the Moon is Illuminated
Dec 24
Waning Gibbous
Dec 25
Last Quarter
Jan 1
New
Jan 7
First Quarter
Jan 15
Full

Hourly Weather History & Observations

Time (EST) Temp. Windchill Dew Point Humidity Pressure Visibility Wind Dir Wind Speed Gust Speed Precip Events Conditions
12:53 AM 26.1 °F 17.6 °F 18.0 °F 71% 30.35 in 8.0 mi WNW 8.1 mph - 0.00 in Snow Light Snow
1:40 AM 26.6 °F 18.2 °F 19.4 °F 74% 30.31 in 4.0 mi West 8.1 mph - 0.00 in Snow Light Snow
1:53 AM 25.0 °F 18.1 °F 19.9 °F 81% 30.34 in 2.5 mi West 5.8 mph - 0.00 in Snow Light Snow
2:05 AM 24.8 °F 16.9 °F 19.4 °F 80% 30.31 in 4.0 mi WSW 6.9 mph - 0.00 in Snow Light Snow
2:45 AM 24.8 °F 14.6 °F 21.2 °F 86% 30.31 in 1.8 mi WNW 10.4 mph - 0.00 in Snow Light Snow
2:53 AM 24.1 °F 13.7 °F 21.0 °F 88% 30.35 in 1.5 mi WNW 10.4 mph - 0.00 in Snow Light Snow
3:53 AM 21.0 °F 8.6 °F 17.1 °F 85% 30.37 in 2.0 mi WNW 12.7 mph - 0.00 in Snow Light Snow
4:03 AM 21.2 °F 9.5 °F 17.6 °F 86% 30.33 in 3.0 mi WNW 11.5 mph - 0.00 in Snow Light Snow
4:15 AM 21.2 °F 9.5 °F 17.6 °F 86% 30.33 in 2.5 mi WNW 11.5 mph - 0.00 in Snow Light Snow
4:22 AM 21.2 °F 7.3 °F 17.6 °F 86% 30.33 in 3.0 mi WNW 16.1 mph - 0.00 in Snow Light Snow
4:33 AM 19.4 °F 5.0 °F 15.8 °F 86% 30.33 in 3.0 mi NW 16.1 mph - 0.00 in Snow Light Snow
4:53 AM 19.9 °F 6.7 °F 15.1 °F 81% 30.37 in 4.0 mi WNW 13.8 mph - 0.00 in Snow Light Snow
5:53 AM 16.0 °F 1.1 °F 9.0 °F 74% 30.40 in 10.0 mi WNW 15.0 mph - 0.00 in   Mostly Cloudy
6:04 AM 15.8 °F 1.4 °F 6.8 °F 68% 30.35 in 10.0 mi West 13.8 mph - N/A   Scattered Clouds
6:53 AM 12.0 °F -4.5 °F 3.9 °F 70% 30.42 in 10.0 mi WNW 16.1 mph - N/A   Clear
7:53 AM 10.9 °F -5.9 °F 3.9 °F 73% 30.45 in 10.0 mi WNW 16.1 mph 23.0 mph N/A   Partly Cloudy
8:32 AM 12.2 °F -4.3 °F 5.0 °F 73% 30.42 in 9.0 mi WNW 16.1 mph 26.5 mph 0.00 in Snow Light Snow
8:53 AM 12.0 °F -4.5 °F 6.1 °F 77% 30.48 in 9.0 mi WNW 16.1 mph 21.9 mph 0.00 in   Overcast
9:53 AM 12.0 °F -5.1 °F 5.0 °F 73% 30.51 in 8.0 mi WNW 17.3 mph - 0.00 in   Overcast
10:53 AM 14.0 °F 0.5 °F 6.1 °F 71% 30.52 in 10.0 mi West 11.5 mph - 0.00 in   Scattered Clouds
11:36 AM 15.8 °F 6.1 °F 6.8 °F 68% 30.48 in 10.0 mi WNW 6.9 mph - N/A   Mostly Cloudy
11:53 AM 16.0 °F 4.4 °F 8.1 °F 71% 30.51 in 10.0 mi West 9.2 mph - N/A   Overcast
12:53 PM 16.0 °F 4.4 °F 8.1 °F 71% 30.51 in 9.0 mi WNW 9.2 mph - 0.00 in   Overcast
1:34 PM 17.6 °F 4.3 °F 8.6 °F 68% 30.47 in 10.0 mi West 12.7 mph - N/A   Scattered Clouds
1:42 PM 17.6 °F 5.0 °F 8.6 °F 68% 30.47 in 10.0 mi West 11.5 mph - N/A   Mostly Cloudy
1:53 PM 17.1 °F 3.6 °F 9.0 °F 71% 30.52 in 10.0 mi West 12.7 mph - N/A   Mostly Cloudy
2:53 PM 17.1 °F 4.3 °F 9.0 °F 71% 30.53 in 10.0 mi WNW 11.5 mph - N/A   Mostly Cloudy
3:08 PM 15.8 °F 2.7 °F 8.6 °F 73% 30.48 in 10.0 mi West 11.5 mph - N/A   Scattered Clouds
3:36 PM 17.6 °F 5.0 °F 10.4 °F 73% 30.49 in 10.0 mi WNW 11.5 mph - N/A   Mostly Cloudy
3:53 PM 17.1 °F 5.0 °F 10.0 °F 74% 30.55 in 10.0 mi WNW 10.4 mph - N/A   Mostly Cloudy
4:53 PM 17.1 °F 5.8 °F 10.0 °F 74% 30.56 in 10.0 mi West 9.2 mph - N/A   Overcast
5:53 PM 16.0 °F 5.3 °F 9.0 °F 74% 30.58 in 10.0 mi NW 8.1 mph - N/A   Scattered Clouds
6:53 PM 14.0 °F 8.2 °F 9.0 °F 80% 30.58 in 10.0 mi North 3.5 mph - N/A   Clear
7:53 PM 14.0 °F 6.5 °F 9.0 °F 80% 30.59 in 10.0 mi NE 4.6 mph - N/A   Mostly Cloudy
8:17 PM 12.2 °F 4.3 °F 8.6 °F 85% 30.53 in 10.0 mi NE 4.6 mph - N/A   Scattered Clouds
8:53 PM 14.0 °F - 9.0 °F 80% 30.58 in 10.0 mi Calm Calm - N/A   Clear
9:53 PM 14.0 °F 8.2 °F 8.1 °F 77% 30.56 in 9.0 mi ESE 3.5 mph - N/A   Clear
10:53 PM 12.9 °F - 8.1 °F 81% 30.57 in 10.0 mi Calm Calm - N/A   Clear
11:53 PM 12.9 °F 6.9 °F 9.0 °F 84% 30.55 in 10.0 mi SE 3.5 mph - N/A   Clear